Huvudsida
METAR-TAF:

METAR-TAF

Flygplatser :

Skövde, Sverige

latitud: 58-27N, longitud: 013-58E, höjd: 98 m

Aktuellt väderrapport

Denna rapport gjordes för 23 minuter sedan, klockan 04:50 UTC
Vind 4 kt från syd
Temperatur 2°C
Fuktighet 100%
Tryck 1039 hPa
Sikt: 7000 m
fuktdis

METAR: ESGR 170450Z AUTO 19004KT 7000 BR OVC017/// 02/02 Q1039

Tid: 06:13 (05:13 UTC)


TAF: saknas

Aktuella väderrapporter och prognoser från 4000 flygplatser (METAR- och TAF-rapporter).

De tillgängliga stationerna syns som gula och röda prickar på kartan.

För musen över prickarna för att se namnen på stationerna.

Klicka sedan för att få väderrapporter och prognoser.

För att ändra kartan: Klicka på de gröna knapparna med ett svart kors på för att zooma in; den gröna knappen med ett streck på för att zooma ut; eller på de gröna pilarna för angränsande kartor.


METAR-TAF: